Location: Unspecified
(0.0000°N, 0.0000°E)
Time: 17:37:57
(UTC+00:00)

STARLINK 1065 - Pass Details

Date: 22 January 2020
Orbit: 549 x 550 km, 53.0° (Epoch: 22 January)

Event Time Altitude Azimuth Distance (km) Brightness Sun altitude
Rises 03:51:39 0° 184° (S) 2,715 7.4 -32.6°
Reaches altitude 10° 03:54:43 10° 161° (SSE) 1,819 6.7 -31.9°
Maximum altitude 03:57:06 15° 125° (SE) 1,522 6.6 -31.3°
Drops below altitude 10° 03:59:30 10° 89° (E) 1,814 7.0 -30.8°
Sets 04:02:32 0° 66° (ENE) 2,704 7.7 -30.1°
